Retour au catalogue

COSMOS 514

ActifMilitairePO
NORAD 6148·PAYLOAD·🇷🇺 Russia

Lancé Aug 16, 1972 depuis Plesetsk Cosmodrome

Loading…

Prochains Passages (prochaines 24 heures)

TLE

FraisSource: Space-Track

Époque: Sep 14, 2026, 16:55 UTC

1 06148U 72062A   26257.70494762  .00000035  00000-0  18618-4 0  9993
2 06148  82.9655 229.2012 0008544 253.8605 278.5341 13.82057957725904

Suivez COSMOS 514 en temps réel avec AllMySat

Download on the App Store